15min,AgWx,evansfrm,411,10DEC2017:00:00:00,17.8,12.88,15.3,15.0,15.0,15.2,14.9,100,100,100,0.299,15.0,15.1,14.8,2.565,2.4,233,11,3.4,-0.00009,-0.00011,33.8,34.2,27,0,0,20.7,14.07,0.00,0.00
15min,AgWx,evansfrm,411,10DEC2017:00:15:00,17.6,12.87,14.9,14.7,14.9,15.1,14.6,100,100,100,0.295,14.9,15.1,14.6,1.491,1.8,211,6.1,3.2,-0.00010,-0.00013,33.9,34.3,27,0,0,20.9,14.07,0.00,0.00
15min,AgWx,evansfrm,411,10DEC2017:00:30:00,17.5,12.87,14.7,14.5,14.6,14.7,14.4,100,100,100,0.292,14.6,14.7,14.3,0.46,0.9,221,13,1.9,-0.00012,-0.00017,33.8,34.0,27,0,0,20.8,14.07,0.00,0.00
15min,AgWx,evansfrm,411,10DEC2017:00:45:00,17.3,12.85,14.8,14.7,14.6,14.7,14.4,100,100,100,0.295,14.6,14.7,14.4,0,0.0,108,15,0.7,-0.00015,-0.00024,33.9,34.2,27,0,0,21.3,14.07,0.00,0.00
15min,AgWx,evansfrm,411,10DEC2017:01:00:00,17.2,12.85,14.8,14.7,14.6,14.8,14.5,100,100,100,0.295,14.6,14.8,14.5,1.381,0.9,323,27,2.3,-0.00012,-0.00017,33.8,34.2,27,0,0,20.8,14.07,0.00,0.00
15min,AgWx,evansfrm,411,10DEC2017:01:15:00,17.1,12.84,15.2,15.0,14.7,15.0,14.5,100,100,100,0.299,14.7,15.0,14.5,0.022,0.7,321,17,2.7,-0.00013,-0.00018,34.0,34.3,27,0,0,20.7,14.07,0.00,0.00
15min,AgWx,evansfrm,411,10DEC2017:01:30:00,17.1,12.84,15.3,15.2,15.1,15.3,15.0,100,100,100,0.301,15.1,15.3,15.0,1.491,1.0,293,13,2.3,-0.00012,-0.00017,33.9,34.2,27,0,0,21.0,14.07,0.00,0.00
15min,AgWx,evansfrm,411,10DEC2017:01:45:00,17.0,12.83,14.9,14.6,14.8,15.2,14.4,100,100,100,0.294,14.8,15.2,14.4,2.872,1.7,252,28,3.4,-0.00010,-0.00013,34.0,34.0,27,0,0,20.8,14.07,0.00,0.00
15min,AgWx,evansfrm,411,10DEC2017:02:00:00,16.9,12.82,13.9,13.6,14.1,14.6,13.6,100,100,100,0.281,14.1,14.6,13.6,3.069,2.3,234,15,3.7,-0.00009,-0.00011,33.8,34.0,27,0,0,19.9,14.07,0.00,0.00
15min,AgWx,evansfrm,411,10DEC2017:02:15:00,16.7,12.81,13.6,13.4,13.4,13.6,13.3,100,100,100,0.278,13.4,13.6,13.2,2.74,2.5,233,6.4,4.0,-0.00008,-0.00010,33.9,34.2,27,0,0,19.1,14.07,0.00,0.00
15min,AgWx,evansfrm,411,10DEC2017:02:30:00,16.4,12.81,14.0,13.8,13.5,13.9,13.3,100,100,100,0.283,13.4,13.9,13.2,0,1.0,231,9.6,2.4,-0.00011,-0.00016,34.0,34.3,27,0,0,19.5,14.07,0.00,0.00
15min,AgWx,evansfrm,411,10DEC2017:02:45:00,16.2,12.79,14.0,13.7,13.8,13.9,13.6,100,100,100,0.282,13.7,13.9,13.6,0.066,0.7,154,24,2.2,-0.00012,-0.00018,33.9,34.0,27,0,0,20.4,14.07,0.00,0.00
15min,AgWx,evansfrm,411,10DEC2017:03:00:00,16.2,12.79,14.0,13.6,13.7,13.9,13.5,100,100,100,0.281,13.7,13.9,13.4,1.644,0.6,241,38,2.5,-0.00012,-0.00018,33.9,34.2,27,0,0,20.3,14.07,0.00,0.00
15min,AgWx,evansfrm,411,10DEC2017:03:15:00,16.0,12.78,14.0,13.6,13.6,13.8,13.5,100,100,100,0.281,13.6,13.7,13.4,1.798,1.0,274,16,2.0,-0.00011,-0.00016,33.9,34.2,27,0,0,19.6,14.07,0.00,0.00
15min,AgWx,evansfrm,411,10DEC2017:03:30:00,16.0,12.77,13.4,13.2,13.3,13.7,13.0,100,100,99,0.275,13.2,13.6,12.8,2.565,1.8,254,12,3.0,-0.00010,-0.00012,33.9,34.0,27,0,0,19.2,14.07,0.00,0.00
15min,AgWx,evansfrm,411,10DEC2017:03:45:00,15.8,12.76,13.5,13.2,13.2,13.3,13.0,99,99,99,0.275,13.0,13.1,12.8,1.359,2.0,267,7.5,3.5,-0.00009,-0.00011,33.9,34.0,27,0,0,18.7,14.07,0.00,0.00
15min,AgWx,evansfrm,411,10DEC2017:04:00:00,15.6,12.75,13.1,12.9,13.0,13.3,12.8,99,99,99,0.270,12.8,13.1,12.5,2.28,2.0,258,12,3.4,-0.00009,-0.00011,33.9,34.0,27,0,0,18.6,14.07,0.00,0.00
15min,AgWx,evansfrm,411,10DEC2017:04:15:00,15.5,12.74,13.1,12.8,12.9,13.1,12.8,99,99,99,0.269,12.6,12.8,12.5,2.105,1.7,250,19,2.7,-0.00010,-0.00012,33.9,33.8,27,0,0,18.5,14.07,0.00,0.00
15min,AgWx,evansfrm,411,10DEC2017:04:30:00,15.3,12.73,12.9,12.8,12.7,12.8,12.6,99,99,99,0.268,12.4,12.5,12.3,0.417,1.4,242,12,2.6,-0.00010,-0.00013,33.8,34.2,27,0,0,18.6,14.07,0.00,0.00
15min,AgWx,evansfrm,411,10DEC2017:04:45:00,15.2,12.72,13.0,12.7,12.7,12.8,12.5,99,99,98,0.266,12.3,12.5,12.2,0.153,0.6,242,14,1.7,-0.00012,-0.00017,33.9,34.0,27,0,0,18.9,14.07,0.00,0.00
15min,AgWx,evansfrm,411,10DEC2017:05:00:00,15.1,12.72,12.8,12.6,12.7,12.8,12.5,99,99,98,0.265,12.3,12.4,12.1,0.46,0.2,317,9.4,1.1,-0.00013,-0.00021,33.9,34.0,27,0,0,19.2,14.07,0.00,0.00
15min,AgWx,evansfrm,411,10DEC2017:05:15:00,15.1,12.71,12.8,12.7,12.6,12.8,12.5,98,99,98,0.265,12.3,12.4,12.1,0,0.2,356,17,1.2,-0.00014,-0.00021,33.9,34.0,27,0,0,19.5,14.07,0.00,0.00
15min,AgWx,evansfrm,411,10DEC2017:05:30:00,15.0,12.7,12.7,12.5,12.6,12.7,12.5,98,98,98,0.264,12.2,12.3,12.1,0,0.1,241,1.7,1.0,-0.00014,-0.00021,33.9,34.2,27,0,0,19.4,14.07,0.00,0.00
15min,AgWx,evansfrm,411,10DEC2017:05:45:00,14.9,12.69,12.7,12.5,12.5,12.6,12.3,98,98,98,0.263,12.0,12.2,11.9,1.074,0.4,183,14,1.2,-0.00013,-0.00019,33.9,34.0,27,0,0,19.5,14.07,0.00,0.00
15min,AgWx,evansfrm,411,10DEC2017:06:00:00,14.8,12.69,12.4,12.2,12.3,12.5,12.2,98,98,98,0.259,11.9,12.0,11.7,0,1.3,144,17,2.5,-0.00010,-0.00013,33.9,34.2,27,0,0,18.8,14.07,0.00,0.00
15min,AgWx,evansfrm,411,10DEC2017:06:15:00,14.7,12.68,12.3,12.2,12.1,12.4,12.0,98,98,98,0.258,11.6,11.8,11.5,0,0.1,165,0.1,0.7,-0.00014,-0.00022,33.8,34.2,27,0,0,18.9,14.07,0.00,0.00
15min,AgWx,evansfrm,411,10DEC2017:06:30:00,14.6,12.69,12.1,11.9,12.0,12.2,11.9,98,98,97,0.254,11.4,11.6,11.3,0.219,0.2,41,7.2,0.9,-0.00013,-0.00020,33.8,34.2,27,0,0,18.8,14.07,0.00,0.00
15min,AgWx,evansfrm,411,10DEC2017:06:45:00,14.5,12.68,12.4,12.3,12.1,12.3,11.9,97,98,97,0.259,11.5,11.7,11.2,0,0.0,27,5.6,0.3,-0.00014,-0.00022,33.9,34.0,27,0,0,19.1,14.07,0.00,0.00
15min,AgWx,evansfrm,411,10DEC2017:07:00:00,14.4,12.68,12.7,12.4,12.4,12.5,12.2,98,98,98,0.261,11.9,12.1,11.6,0.395,0.6,346,28,2.0,-0.00012,-0.00017,33.8,34.0,27,0,0,18.9,14.07,0.00,0.00
15min,AgWx,evansfrm,411,10DEC2017:07:15:00,14.4,12.67,12.9,12.7,12.6,12.8,12.4,98,98,98,0.266,12.2,12.4,11.9,0.329,0.1,340,13,1.1,-0.00014,-0.00022,33.9,34.0,27,0,0,19.3,14.07,0.00,0.00
15min,AgWx,evansfrm,411,10DEC2017:07:30:00,14.4,12.66,11.8,11.4,12.0,12.8,11.4,97,98,97,0.247,11.4,12.4,10.6,2.389,2.0,262,16,2.8,-0.00009,-0.00011,33.8,34.0,27,0,0,18.0,14.07,0.00,0.00
15min,AgWx,evansfrm,411,10DEC2017:07:45:00,14.2,12.66,11.5,11.4,11.3,11.4,11.1,97,97,97,0.247,10.5,10.7,10.3,0.811,1.7,246,11,2.7,-0.00009,-0.00011,33.8,34.0,27,2,0,17.0,14.07,0.00,0.00
15min,AgWx,evansfrm,411,10DEC2017:08:00:00,14.1,12.67,11.6,11.2,11.3,11.5,11.0,97,97,96,0.244,10.5,10.8,10.2,1.491,1.1,260,15,1.8,-0.00003,-0.00003,33.8,34.0,27,5,0,17.6,14.07,0.00,0.00
15min,AgWx,evansfrm,411,10DEC2017:08:15:00,14.0,12.65,11.4,11.1,11.2,11.3,11.1,96,97,96,0.243,10.4,10.5,10.2,0.658,1.0,240,13,1.7,0.00001,0.00001,33.9,34.2,27,8,0,17.9,14.07,0.00,0.00
15min,AgWx,evansfrm,411,10DEC2017:08:30:00,14.0,12.68,11.8,11.4,11.3,11.5,11.1,97,97,96,0.247,10.5,10.7,10.2,0.636,0.8,245,19,1.3,0.00002,0.00002,33.7,34.2,27,20,0,18.7,14.07,0.00,0.00
15min,AgWx,evansfrm,411,10DEC2017:08:45:00,14.2,12.7,12.1,11.8,11.7,11.9,11.4,97,97,97,0.252,10.9,11.2,10.6,1.315,0.4,209,78,2.0,0.00003,0.00004,33.8,34.0,27,48,0,21.4,14.07,0.00,0.00
15min,AgWx,evansfrm,411,10DEC2017:09:00:00,14.5,12.73,12.9,12.2,12.0,12.3,11.7,97,97,97,0.258,11.3,11.7,11.0,0,0.1,216,36,0.9,0.00009,0.00009,33.9,34.0,27,65,0,23.4,14.07,0.00,0.00
15min,AgWx,evansfrm,411,10DEC2017:09:15:00,15.0,12.77,12.8,12.1,12.0,12.3,11.8,97,97,97,0.256,11.4,11.7,11.1,0,0.5,157,6.9,1.8,0.00014,0.00015,33.8,34.0,27,85,0,25.3,14.07,0.00,0.00
15min,AgWx,evansfrm,411,10DEC2017:09:30:00,15.6,12.81,13.1,12.0,12.5,13.0,11.9,98,98,97,0.254,11.9,12.5,11.2,1.885,0.4,10,65,2.3,0.00018,0.00019,33.8,34.0,27,97,0,26.1,14.07,0.00,0.00
15min,AgWx,evansfrm,411,10DEC2017:09:45:00,16.1,12.88,12.9,11.9,11.9,12.1,11.7,97,97,97,0.253,11.1,11.4,10.9,1.535,1.3,264,19,2.2,0.00022,0.00023,33.8,34.0,27,116,0,24.7,14.07,0.00,0.00
15min,AgWx,evansfrm,411,10DEC2017:10:00:00,16.7,12.97,13.5,12.7,12.2,12.7,11.9,97,98,97,0.263,11.5,12.1,11.2,1.228,0.9,244,23,2.2,0.00028,0.00030,33.9,33.8,27,144,0,27.7,14.07,0.00,0.00
15min,AgWx,evansfrm,411,10DEC2017:10:15:00,17.6,13.05,14.5,12.9,12.9,13.4,12.5,98,98,97,0.267,12.4,12.9,11.9,0.767,0.5,292,20,2.4,0.00033,0.00035,33.9,34.2,27,157,0,30.3,14.07,0.00,0.00
15min,AgWx,evansfrm,411,10DEC2017:10:30:00,18.6,13.15,15.4,13.3,13.6,14.3,12.8,99,99,98,0.272,13.3,14.1,12.2,1.14,0.4,329,10,1.8,0.00038,0.00041,33.8,34.0,27,173,0,33.2,14.07,0.00,0.00
15min,AgWx,evansfrm,411,10DEC2017:10:45:00,19.5,13.29,15.4,13.4,13.3,13.6,13.0,98,98,98,0.274,12.9,13.2,12.6,0.702,1.1,316,22,2.5,0.00042,0.00045,33.8,34.0,27,201,0,31.1,14.07,0.00,0.00
15min,AgWx,evansfrm,411,10DEC2017:11:00:00,20.3,13.43,16.6,13.9,13.7,14.1,13.4,99,99,98,0.281,13.4,13.8,13.0,0,1.1,282,11,1.9,0.00047,0.00050,33.8,34.3,27,222,0,32.8,14.07,0.00,0.00
15min,AgWx,evansfrm,411,10DEC2017:11:15:00,21.4,13.57,15.3,14.5,14.1,14.5,13.8,99,99,99,0.291,13.9,14.4,13.5,0,0.9,208,19,2.8,0.00053,0.00057,33.8,34.2,27,245,0,37.2,14.07,0.00,0.00
15min,AgWx,evansfrm,411,10DEC2017:11:30:00,22.9,13.94,17.0,15.6,15.3,16.1,14.5,100,100,99,0.307,15.3,16.1,14.4,0,0.3,159,17,1.4,0.00066,0.00071,33.8,34.0,27,284,0,42.5,14.07,0.00,0.00
15min,AgWx,evansfrm,411,10DEC2017:11:45:00,24.9,14.99,20.5,15.8,16.5,17.5,15.6,100,100,100,0.310,16.5,17.5,15.6,2.85,0.7,310,17,3.0,0.00076,0.00081,33.8,34.0,27,328,0,42.0,14.07,0.00,0.00
15min,AgWx,evansfrm,411,10DEC2017:12:00:00,27.0,14.94,20.3,16.2,16.1,16.4,15.6,100,100,100,0.315,16.1,16.4,15.6,1.841,2.0,276,26,3.7,0.00082,0.00088,33.8,34.2,27,397,0,37.9,14.06,0.00,0.00
15min,AgWx,evansfrm,411,10DEC2017:12:15:00,28.8,14.9,22.2,17.2,16.9,17.6,16.2,100,100,100,0.329,16.9,17.6,16.1,2.477,1.6,286,14,3.5,0.00084,0.00089,33.8,34.2,27,383,0,37.5,14.06,0.00,0.00
15min,AgWx,evansfrm,411,10DEC2017:12:30:00,30.1,14.89,18.0,16.8,16.7,17.2,16.3,100,100,100,0.323,16.7,17.2,16.3,2.148,2.9,264,24,4.5,0.00073,0.00078,33.9,34.2,27,359,0,34.4,14.06,0.00,0.00
15min,AgWx,evansfrm,411,10DEC2017:12:45:00,31.2,14.86,20.4,17.1,16.9,17.3,16.6,100,100,100,0.327,16.9,17.3,16.6,2.411,2.9,263,18,4.2,0.00086,0.00091,33.9,34.0,27,425,0,35.7,14.06,0.00,0.00
15min,AgWx,evansfrm,411,10DEC2017:13:00:00,32.0,14.83,18.5,17.1,17.0,17.2,16.8,100,100,100,0.327,17.0,17.2,16.8,3.201,2.4,241,17,3.9,0.00074,0.00079,33.8,34.0,27,349,0,40.0,14.06,0.00,0.00
15min,AgWx,evansfrm,411,10DEC2017:13:15:00,32.3,14.85,19.3,17.9,17.6,18.2,17.0,100,100,100,0.339,17.6,18.1,17.0,2.148,2.0,234,24,3.8,0.00080,0.00085,33.9,34.0,27,369,0,40.5,14.07,0.00,0.00
15min,AgWx,evansfrm,411,10DEC2017:13:30:00,32.9,14.82,21.6,20.5,18.8,20.5,17.7,100,100,100,0.379,18.8,20.5,17.7,0,0.6,241,16,2.7,0.00083,0.00089,33.8,34.0,27,345,0,44.2,14.07,0.00,0.00
15min,AgWx,evansfrm,411,10DEC2017:13:45:00,33.2,14.81,22.8,18.1,19.2,21.2,17.8,100,100,100,0.342,19.2,21.2,17.8,0,1.0,276,14,3.0,0.00068,0.00072,33.8,34.0,27,278,0,42.0,14.07,0.00,0.00
15min,AgWx,evansfrm,411,10DEC2017:14:00:00,33.2,14.83,21.0,18.1,18.4,19.7,17.7,100,100,100,0.342,18.4,19.7,17.7,2.083,1.3,319,24,3.8,0.00069,0.00073,33.9,34.0,27,305,0,38.2,14.07,0.00,0.00
15min,AgWx,evansfrm,411,10DEC2017:14:15:00,33.8,14.83,23.1,21.2,18.9,21.2,18.0,100,100,100,0.390,18.9,21.2,18.0,0.57,1.0,350,27,3.7,0.00075,0.00079,33.9,33.8,27,338,0,36.2,14.07,0.00,0.00
15min,AgWx,evansfrm,411,10DEC2017:14:30:00,35.4,14.78,22.0,20.0,20.4,21.6,19.6,100,100,100,0.371,20.4,21.6,19.6,3.771,2.4,260,16,4.2,0.00071,0.00075,33.8,34.0,27,337,0,37.4,14.07,0.00,0.00
15min,AgWx,evansfrm,411,10DEC2017:14:45:00,35.8,14.76,24.8,19.3,19.7,20.3,19.3,100,100,100,0.360,19.7,20.3,19.3,2.74,2.6,276,17,4.2,0.00061,0.00064,33.7,34.0,27,309,0,34.9,14.07,0.00,0.00
15min,AgWx,evansfrm,411,10DEC2017:15:00:00,35.9,14.67,23.0,18.9,19.3,19.8,18.9,100,100,100,0.354,19.3,19.8,18.9,1.25,2.3,281,18,4.0,0.00045,0.00048,33.8,34.0,27,245,0,34.9,14.07,0.00,0.00
15min,AgWx,evansfrm,411,10DEC2017:15:15:00,34.7,13.78,20.2,18.3,18.5,18.9,18.2,100,100,100,0.344,18.5,18.9,18.2,2.916,2.4,287,6.1,3.7,0.00026,0.00028,33.8,34.0,27,140,0,30.5,14.07,0.00,0.00
15min,AgWx,evansfrm,411,10DEC2017:15:30:00,32.8,13.54,18.6,18.0,18.1,18.3,18.0,100,100,100,0.341,18.1,18.3,17.9,1.184,2.7,243,24,4.1,0.00022,0.00023,33.8,34.0,27,138,0,30.9,14.07,0.00,0.00
15min,AgWx,evansfrm,411,10DEC2017:15:45:00,31.0,13.39,18.5,18.0,18.1,18.3,18.0,100,100,100,0.341,18.1,18.3,17.9,3.135,2.0,222,21,3.6,0.00015,0.00015,33.8,33.8,27,101,0,30.8,14.07,0.00,0.00
15min,AgWx,evansfrm,411,10DEC2017:16:00:00,29.4,14.89,19.2,18.7,18.1,18.7,17.9,100,100,100,0.351,18.1,18.7,17.9,0.767,1.3,192,21,3.1,0.00008,0.00008,33.7,34.0,27,110,0,30.1,14.07,0.00,0.00
15min,AgWx,evansfrm,411,10DEC2017:16:15:00,28.2,14.88,20.3,20.2,19.6,20.7,18.7,100,100,100,0.374,19.6,20.7,18.7,1.337,0.3,356,50,1.9,0.00005,0.00005,33.9,34.2,27,110,0,30.9,14.07,0.00,0.00
15min,AgWx,evansfrm,411,10DEC2017:16:30:00,27.5,13.81,19.1,18.2,18.9,20.4,18.2,100,100,100,0.344,18.9,20.4,18.2,0,0.4,29,11,1.8,-0.00007,-0.00007,33.8,34.0,27,74,0,27.9,14.07,0.00,0.00
15min,AgWx,evansfrm,411,10DEC2017:16:45:00,26.8,13.29,17.7,17.3,17.9,18.2,17.3,100,100,100,0.331,17.9,18.2,17.3,0.044,0.4,338,7.1,2.1,-0.00022,-0.00023,33.8,34.0,27,23,0,24.1,14.07,0.00,0.00
15min,AgWx,evansfrm,411,10DEC2017:17:00:00,25.2,13.17,16.5,16.6,16.7,17.4,16.5,100,100,100,0.321,16.7,17.4,16.5,0.219,0.5,354,7.0,2.5,-0.00011,-0.00017,33.9,34.0,27,10,0,20.4,14.07,0.00,0.00
15min,AgWx,evansfrm,411,10DEC2017:17:15:00,23.3,13.12,15.8,15.9,16.4,16.9,15.8,100,100,100,0.311,16.4,16.9,15.8,0,0.2,3.5,2.9,2.1,-0.00013,-0.00020,33.8,34.0,27,5,0,19.5,14.07,0.00,0.00
15min,AgWx,evansfrm,411,10DEC2017:17:30:00,21.3,13.1,13.6,14.2,14.7,16.0,14.0,100,100,100,0.289,14.7,16.0,14.0,0,0.1,262,2.9,0.5,-0.00014,-0.00022,33.8,33.8,27,0,0,18.0,14.07,0.00,0.00
15min,AgWx,evansfrm,411,10DEC2017:17:45:00,19.7,13.08,14.9,14.8,14.7,15.2,14.2,100,100,100,0.297,14.7,15.2,14.1,0.482,0.5,204,16,1.9,-0.00012,-0.00018,33.8,34.0,27,0,0,17.8,14.07,0.00,0.00
15min,AgWx,evansfrm,411,10DEC2017:18:00:00,18.7,13.07,14.6,14.7,15.0,15.2,14.7,100,100,100,0.295,15.0,15.2,14.7,0,0.4,265,16,2.2,-0.00013,-0.00019,33.7,34.0,27,0,0,20.2,14.07,0.00,0.00
15min,AgWx,evansfrm,411,10DEC2017:18:15:00,18.3,13.02,15.2,15.2,14.9,15.3,14.6,100,100,100,0.301,14.9,15.3,14.6,1.732,0.2,145,2.4,1.8,-0.00013,-0.00021,33.8,34.0,27,0,0,21.9,14.07,0.00,0.00
15min,AgWx,evansfrm,411,10DEC2017:18:30:00,18.1,13.04,16.1,16.2,15.5,16.2,15.1,100,100,100,0.315,15.5,16.2,15.1,1.14,0.7,139,0.0,1.8,-0.00012,-0.00017,33.8,34.0,27,0,0,22.2,14.07,0.00,0.00
15min,AgWx,evansfrm,411,10DEC2017:18:45:00,18.2,13.03,17.7,17.5,16.8,17.5,16.0,100,100,100,0.333,16.8,17.5,16.0,3.31,2.3,149,14,4.2,-0.00009,-0.00011,33.9,34.0,27,0,0,22.7,14.07,0.00,0.00
15min,AgWx,evansfrm,411,10DEC2017:19:00:00,18.3,13.02,14.4,14.1,15.9,17.5,14.1,100,100,100,0.287,15.9,17.5,14.0,6.445,5.1,194,11,7.3,-0.00006,-0.00007,33.9,34.0,27,0,0,21.5,14.07,0.00,0.00
15min,AgWx,evansfrm,411,10DEC2017:19:15:00,18.0,13.01,14.6,14.4,14.2,14.5,13.9,100,100,100,0.292,14.2,14.5,13.9,2.894,4.3,195,7.6,6.7,-0.00006,-0.00007,33.8,34.0,27,0,0,19.6,14.07,0.00,0.00
15min,AgWx,evansfrm,411,10DEC2017:19:30:00,17.8,13,15.1,14.9,14.6,14.9,14.4,100,100,100,0.297,14.6,14.8,14.3,2.587,1.3,202,7.2,3.2,-0.00010,-0.00014,33.8,34.0,27,0,0,20.6,14.07,0.00,0.00
15min,AgWx,evansfrm,411,10DEC2017:19:45:00,17.7,12.99,15.1,14.9,14.9,15.1,14.7,100,100,100,0.297,14.9,15.1,14.7,1.688,1.4,147,20,3.0,-0.00010,-0.00013,33.8,33.8,27,0,0,21.0,14.07,0.00,0.00
15min,AgWx,evansfrm,411,10DEC2017:20:00:00,17.5,12.99,14.6,14.4,14.5,14.9,14.4,100,100,100,0.291,14.5,14.8,14.3,0,0.2,155,0.0,1.3,-0.00013,-0.00020,33.9,34.0,27,0,0,20.9,14.07,0.00,0.00
15min,AgWx,evansfrm,411,10DEC2017:20:15:00,17.4,12.98,14.7,14.5,14.5,14.6,14.3,100,100,100,0.293,14.5,14.6,14.3,0,0.1,299,15,1.1,-0.00014,-0.00022,33.9,34.0,27,0,0,20.7,14.07,0.00,0.00
15min,AgWx,evansfrm,411,10DEC2017:20:30:00,17.2,12.97,15.0,14.9,14.7,14.9,14.5,100,100,100,0.298,14.7,14.9,14.5,0.986,1.0,346,18,3.1,-0.00011,-0.00015,33.8,34.0,27,0,0,20.6,14.07,0.00,0.00
15min,AgWx,evansfrm,411,10DEC2017:20:45:00,17.2,12.96,16.2,16.0,15.4,16.1,14.9,100,100,100,0.312,15.4,16.1,14.8,0,2.2,355,15,6.0,-0.00009,-0.00011,33.9,34.2,27,0,0,20.9,14.07,0.00,0.00
15min,AgWx,evansfrm,411,10DEC2017:21:00:00,17.4,12.95,16.4,16.3,16.1,16.3,16.0,100,100,100,0.316,16.1,16.3,15.9,2.324,1.2,292,24,2.8,-0.00011,-0.00015,33.9,34.0,27,0,0,21.8,14.07,0.00,0.00
15min,AgWx,evansfrm,411,10DEC2017:21:15:00,17.5,12.94,16.1,15.8,16.0,16.3,15.8,100,100,100,0.309,16.0,16.3,15.8,1.973,2.3,254,20,3.8,-0.00009,-0.00011,33.9,34.0,27,0,0,21.5,14.07,0.00,0.00
15min,AgWx,evansfrm,411,10DEC2017:21:30:00,17.6,12.93,15.4,15.0,15.4,15.8,15.0,100,100,100,0.299,15.4,15.8,15.0,1.973,2.3,229,12,3.5,-0.00009,-0.00011,33.8,34.0,27,0,0,21.1,14.07,0.00,0.00
15min,AgWx,evansfrm,411,10DEC2017:21:45:00,17.6,12.92,15.7,15.5,15.3,15.6,14.9,100,100,100,0.305,15.3,15.6,14.8,0.219,0.8,229,14,2.0,-0.00012,-0.00016,33.9,34.2,27,0,0,21.4,14.06,0.00,0.00
15min,AgWx,evansfrm,411,10DEC2017:22:00:00,17.5,12.92,15.5,15.3,15.4,15.6,15.2,100,100,100,0.304,15.4,15.6,15.2,0.592,1.0,254,9.9,2.6,-0.00011,-0.00015,33.8,34.0,27,0,0,21.5,14.07,0.00,0.00
15min,AgWx,evansfrm,411,10DEC2017:22:15:00,17.5,12.92,15.7,15.3,15.3,15.4,15.1,100,100,100,0.303,15.3,15.4,15.1,0,0.4,248,31,2.9,-0.00013,-0.00019,33.9,34.0,27,0,0,21.7,14.07,0.00,0.00
15min,AgWx,evansfrm,411,10DEC2017:22:30:00,17.5,12.91,15.1,14.9,15.1,15.3,14.8,100,100,100,0.297,15.0,15.3,14.8,0.219,1.2,163,31,2.4,-0.00011,-0.00014,33.7,33.8,27,0,0,21.5,14.07,0.00,0.00
15min,AgWx,evansfrm,411,10DEC2017:22:45:00,17.4,12.9,15.1,14.9,14.9,15.0,14.7,100,100,100,0.297,14.9,15.0,14.7,0,0.2,145,20,1.4,-0.00013,-0.00020,33.8,33.8,27,0,0,21.3,14.07,0.00,0.00
15min,AgWx,evansfrm,411,10DEC2017:23:00:00,17.3,12.89,15.0,14.8,14.8,14.9,14.6,100,100,100,0.296,14.8,14.9,14.6,0,0.5,276,17,2.0,-0.00012,-0.00018,33.9,34.0,27,0,0,21.3,14.07,0.00,0.00
15min,AgWx,evansfrm,411,10DEC2017:23:15:00,17.2,12.88,15.1,15.0,14.9,15.1,14.7,100,100,100,0.299,14.9,15.1,14.7,0,0.6,188,6.8,1.6,-0.00012,-0.00017,33.9,33.8,27,0,0,21.6,14.07,0.00,0.00
15min,AgWx,evansfrm,411,10DEC2017:23:30:00,17.2,12.88,15.2,14.9,15.0,15.2,14.9,100,100,100,0.298,15.0,15.1,14.8,0.022,0.4,251,32,1.8,-0.00012,-0.00018,33.8,34.0,27,0,0,21.6,14.07,0.00,0.00
15min,AgWx,evansfrm,411,10DEC2017:23:45:00,17.2,12.88,15.5,15.2,15.1,15.3,14.9,100,100,100,0.301,15.1,15.3,14.8,2.28,0.5,235,25,3.1,-0.00012,-0.00018,33.9,34.0,27,0,0,21.6,14.07,0.00,0.00
15min,AgWx,drainfrm,410,10DEC2017:00:00:00,18.4,12.36,16.7,17.2,17.1,17.3,17.0,97,97,97,0.318,16.4,16.6,16.2,0.548,1.2,167,34,2.1,-0.00004,-0.00005,34.8,37.0,38,0,100,21.9,13.49,0.00,0.00
15min,AgWx,drainfrm,410,10DEC2017:00:15:00,18.4,12.35,16.5,16.8,17.2,17.4,16.7,97,97,97,0.312,16.4,16.7,15.9,4.384,1.3,198,40,4.4,-0.00004,-0.00005,34.8,37.0,38,0,100,22.2,13.49,0.00,0.00
15min,AgWx,drainfrm,410,10DEC2017:00:30:00,18.2,12.35,15.7,16.0,16.4,16.8,16.0,97,97,97,0.303,15.7,16.1,15.3,1.732,3.5,205,10,5.0,-0.00002,-0.00002,34.8,36.9,38,0,100,20.4,13.49,0.00,0.00
15min,AgWx,drainfrm,410,10DEC2017:00:45:00,18.0,12.35,15.9,16.4,16.2,16.4,16.0,97,97,97,0.307,15.4,15.7,15.2,0.986,1.7,220,15,3.0,-0.00003,-0.00004,34.7,36.7,38,0,100,20.6,13.48,0.00,0.00
15min,AgWx,drainfrm,410,10DEC2017:01:00:00,17.9,12.35,15.9,16.2,16.2,16.4,16.0,97,97,96,0.305,15.4,15.7,15.2,1.447,1.7,267,28,3.0,-0.00003,-0.00004,34.7,37.0,38,0,100,21.0,13.48,0.00,0.00
15min,AgWx,drainfrm,410,10DEC2017:01:15:00,17.7,12.35,15.7,16.2,16.2,16.3,16.1,96,97,96,0.304,15.4,15.5,15.2,0.965,1.2,328,29,2.7,-0.00003,-0.00005,34.8,37.4,38,0,100,21.0,13.48,0.00,0.00
15min,AgWx,drainfrm,410,10DEC2017:01:30:00,17.7,12.35,16.1,16.5,16.4,16.5,16.2,96,97,96,0.308,15.5,15.7,15.3,1.754,1.8,316,23,4.0,-0.00003,-0.00004,34.8,37.0,38,0,100,21.1,13.49,0.00,0.00
15min,AgWx,drainfrm,410,10DEC2017:01:45:00,17.6,12.34,16.0,16.5,16.5,16.7,16.4,97,97,96,0.308,15.7,15.9,15.6,1.776,1.3,291,28,2.1,-0.00003,-0.00005,34.7,37.0,38,0,100,21.4,13.49,0.00,0.00
15min,AgWx,drainfrm,410,10DEC2017:02:00:00,17.5,12.34,16.1,16.5,16.4,16.5,16.3,96,96,96,0.307,15.6,15.7,15.4,0.767,1.3,57,31,3.3,-0.00003,-0.00004,34.7,37.4,38,0,100,21.2,13.49,0.00,0.00
15min,AgWx,drainfrm,410,10DEC2017:02:15:00,17.5,12.34,16.1,16.5,16.6,16.7,16.4,96,96,96,0.308,15.7,15.9,15.5,1.096,0.4,131,42,2.1,-0.00005,-0.00007,34.8,37.2,38,0,100,21.8,13.49,0.00,0.00
15min,AgWx,drainfrm,410,10DEC2017:02:30:00,17.5,12.34,15.7,16.1,16.4,16.7,16.1,96,97,96,0.302,15.5,15.9,15.2,1.885,1.7,176,25,3.0,-0.00003,-0.00004,34.7,37.4,38,0,100,21.1,13.49,0.00,0.00
15min,AgWx,drainfrm,410,10DEC2017:02:45:00,17.4,12.34,14.5,14.9,15.5,16.1,14.9,96,96,96,0.286,14.6,15.2,13.9,3.244,3.3,193,13,4.8,-0.00002,-0.00002,34.8,37.4,38,0,100,19.7,13.49,0.00,0.00
15min,AgWx,drainfrm,410,10DEC2017:03:00:00,17.1,12.34,14.0,14.3,14.6,15.0,14.3,96,96,96,0.278,13.6,14.1,13.3,1.513,2.8,203,15,3.9,-0.00002,-0.00002,34.7,37.2,38,0,100,18.9,13.49,0.00,0.00
15min,AgWx,drainfrm,410,10DEC2017:03:15:00,16.8,12.33,14.2,14.5,14.3,14.5,14.2,96,96,96,0.280,13.3,13.6,13.2,1.469,2.0,240,21,3.2,-0.00002,-0.00003,34.8,37.0,38,0,100,19.0,13.49,0.00,0.00
15min,AgWx,drainfrm,410,10DEC2017:03:30:00,16.5,12.33,14.4,15.0,14.8,15.0,14.5,96,96,96,0.286,13.8,14.1,13.5,0.986,1.4,271,21,2.7,-0.00003,-0.00004,34.7,37.6,38,0,100,19.8,13.49,0.00,0.00
15min,AgWx,drainfrm,410,10DEC2017:03:45:00,16.4,12.33,14.6,15.1,14.9,15.1,14.8,96,96,96,0.287,14.0,14.1,13.8,1.578,1.0,287,19,2.3,-0.00004,-0.00005,34.7,36.7,38,0,100,20.2,13.49,0.00,0.00
15min,AgWx,drainfrm,410,10DEC2017:04:00:00,16.3,12.33,14.5,15.1,15.1,15.1,15.0,96,96,96,0.287,14.0,14.1,13.9,0,0.3,344,26,1.4,-0.00004,-0.00007,34.7,37.9,38,0,100,20.5,13.49,0.00,0.00
15min,AgWx,drainfrm,410,10DEC2017:04:15:00,16.3,12.32,14.5,15.0,15.1,15.2,14.9,96,96,95,0.286,14.0,14.1,13.8,1.754,1.3,120,8.2,3.1,-0.00003,-0.00004,34.7,36.9,38,0,100,20.1,13.49,0.00,0.00
15min,AgWx,drainfrm,410,10DEC2017:04:30:00,16.2,12.32,15.0,15.3,15.1,15.4,15.0,96,96,96,0.290,14.1,14.4,13.9,0.767,1.0,98,22,2.0,-0.00003,-0.00005,34.7,37.0,38,0,100,19.9,13.49,0.00,0.00
15min,AgWx,drainfrm,410,10DEC2017:04:45:00,16.2,12.32,15.0,15.4,15.3,15.4,15.2,96,96,96,0.291,14.3,14.4,14.1,0.504,1.1,123,12,1.9,-0.00003,-0.00005,34.7,37.4,38,0,100,20.2,13.49,0.00,0.00
15min,AgWx,drainfrm,410,10DEC2017:05:00:00,16.2,12.32,14.7,15.0,15.2,15.5,14.8,96,96,95,0.286,14.2,14.5,13.8,2.981,0.9,177,32,3.1,-0.00004,-0.00005,34.7,37.4,38,0,100,20.3,13.49,0.00,0.00
15min,AgWx,drainfrm,410,10DEC2017:05:15:00,16.2,12.32,14.1,14.3,14.6,15.0,14.3,96,96,95,0.278,13.5,13.9,13.2,2.938,2.6,226,12,3.6,-0.00002,-0.00002,34.7,37.2,38,0,100,19.0,13.49,0.00,0.00
15min,AgWx,drainfrm,410,10DEC2017:05:30:00,16.0,12.32,14.0,14.3,14.3,14.5,14.2,96,96,96,0.278,13.3,13.5,13.2,1.513,2.0,223,13,3.4,-0.00002,-0.00003,34.7,37.2,38,0,100,18.9,13.49,0.00,0.00
15min,AgWx,drainfrm,410,10DEC2017:05:45:00,15.9,12.32,13.9,14.3,14.3,14.4,14.3,96,96,95,0.277,13.3,13.4,13.2,1.513,1.0,240,20,2.0,-0.00003,-0.00005,34.7,37.0,38,0,100,19.4,13.49,0.00,0.00
15min,AgWx,drainfrm,410,10DEC2017:06:00:00,15.8,12.32,13.8,14.2,14.2,14.3,14.1,95,95,95,0.274,13.1,13.2,13.0,1.666,1.2,232,30,2.5,-0.00003,-0.00004,34.6,36.7,38,0,100,19.5,13.49,0.00,0.00
15min,AgWx,drainfrm,410,10DEC2017:06:15:00,15.7,12.31,13.4,13.8,14.0,14.2,13.8,95,95,95,0.270,12.9,13.1,12.6,2.499,2.0,251,11,3.0,-0.00002,-0.00003,34.8,36.1,38,0,100,18.8,13.49,0.00,0.00
15min,AgWx,drainfrm,410,10DEC2017:06:30:00,15.5,12.31,13.1,13.5,13.7,13.8,13.5,95,95,95,0.266,12.5,12.7,12.3,1.425,1.7,248,12,2.8,-0.00003,-0.00003,34.7,36.7,38,0,100,18.5,13.49,0.00,0.00
15min,AgWx,drainfrm,410,10DEC2017:06:45:00,15.3,12.31,13.0,13.5,13.5,13.7,13.4,95,95,95,0.265,12.3,12.6,12.1,0.921,0.9,232,31,1.8,-0.00003,-0.00005,34.7,36.7,38,0,100,18.6,13.49,0.00,0.00
15min,AgWx,drainfrm,410,10DEC2017:07:00:00,15.2,12.31,13.1,13.5,13.5,13.6,13.4,95,95,95,0.265,12.2,12.4,12.1,0.658,0.9,258,18,1.8,-0.00003,-0.00005,34.8,37.0,38,0,100,18.8,13.49,0.00,0.00
15min,AgWx,drainfrm,410,10DEC2017:07:15:00,15.1,12.31,13.2,13.6,13.5,13.6,13.3,95,95,94,0.267,12.2,12.4,12.0,0.68,0.7,258,29,1.5,-0.00004,-0.00005,34.6,37.2,38,0,100,18.8,13.49,0.00,0.00
15min,AgWx,drainfrm,410,10DEC2017:07:30:00,15.0,12.31,13.4,13.8,13.7,13.8,13.5,95,95,95,0.270,12.5,12.7,12.3,2.17,1.4,317,29,2.5,-0.00003,-0.00004,34.7,36.9,38,0,100,18.7,13.49,0.00,0.00